Погода в Кашиасе

Бразилия     4°45′36″S   43°18′36″W
темп.,
°C
ветер,
м/с
пор.,
м/с
влажн.,
%
обл.,
%
осадки,
мм/ч
давл.,
гПа
погр.,
м
27 февраля, сб
сб2700:00+23ссв2997100 0.1 1011329
03:00+23с1297100 1.3 100930
06:00+23всв1195100 3.1 101024
09:00+25юз1195100 4.6 101290
12:00+29ююз117847 3.8 1011952
15:00+28ю117670 6.0 1007789
18:00+25в119092 1.8 100824
21:00+23с259695 6.8 1009124
28 февраля, вс
вс2800:00+23всв1398100 0.9 1010113
03:00+22св1598100 4.1 1008153
06:00+22юв2499100 1.3 1009170
09:00+23ююв1399100 3.4 1011218
12:00+26ююв1284100 0.8 1010463
15:00+26юв1285100 2.1 1006505
18:00+25ю1290100 0.1 100658
21:00+22ююз119997 6.6 100824
1 марта, пн
пн100:00+23ссз1198100 2.5 100823
03:00+22с1198100 2.5 100624
06:00+21ссз119889 0.0 100723
09:00+27всв138363 0.3 1009581
12:00+27в238869 4.6 1008647
15:00+28всв238184 7.4 1005773
18:00+25св1194100 2.9 100524
21:00+23св1295100 6.8 100840
2 марта, вт
вт200:00+22ссв1498100 5.8 1008103
03:00+22ссв1598100 7.0 1007167
06:00+21всв279947 0.1 1008284
09:00+26вюв258529 0.1 1011606
12:00+30вюв366142 0.1 10091503
15:00+29св248271 2.4 10061042
18:00+25ссв1292100 3.8 100724
21:00+23с229798 6.1 101094
3 марта, ср
ср300:00+22ссв1297100 0.1 101148
03:00+22ссв1598100 1.4 1010176
06:00+21всв159966 0.0 1011168
09:00+26в248337 0.0 1013543
12:00+31в36571 0.0 10121614
15:00+31в365936 0.0 10081788
18:00+26вюв128182 0.1 100924
21:00+23с258791 0.1 1011102